Regional Weather Roundup
Issued by NWS Charleston, WV

Home | Current Version | Previous Version | Graphics & Text | Print | Product List | Glossary On
Versions: 1 2 3 4 5 6 7 8 9 10 11 12 13 14 15 16 17 18 19 20 21 22 23 24 25 26 27 28 29 30 31 32 33 34 35 36 37 38 39 40 41 42 43 44 45 46 47 48 49 50
302
ASUS41 KRLX 260010
RWRRLX
West Virginia Regional Weather Roundup
National Weather Service Charleston WV
800 PM EDT THU MAY 25 2017

Note: "fair" indicates few or no clouds below 12,000 feet with no
significant weather and/or obstructions to visibility.

WVZ003-260100-
Northern Panhandle of West Virginia

CITY           SKY/WX    TMP DP  RH WIND       PRES   REMARKS
WHEELING       RAIN      57  54  89 SW6       29.54R FOG
$$

WVZ009-260100-
Northwest West Virginia

CITY           SKY/WX    TMP DP  RH WIND       PRES   REMARKS
PARKERSBURG    MOCLDY    61  54  77 SW8       29.58R
$$

WVZ006-260100-
Western West Virginia

CITY           SKY/WX    TMP DP  RH WIND       PRES   REMARKS
HUNTINGTON     LGT RAIN  60  57  89 W12G17    29.62R FOG
$$

WVZ015-260100-
West Central West Virginia

CITY           SKY/WX    TMP DP  RH WIND       PRES   REMARKS
CHARLESTON     CLOUDY    60  57  89 SW10      29.60R
$$

WVZ022-031-260100-
North Central West Virginia

CITY           SKY/WX    TMP DP  RH WIND       PRES   REMARKS
CLARKSBURG     CLOUDY    60  52  74 SW7       29.56R
MORGANTOWN     CLOUDY    61  52  72 CALM      29.56R
$$

WVZ025-035-042-045-260100-
Southern West Virginia

CITY           SKY/WX    TMP DP  RH WIND       PRES   REMARKS
BECKLEY        LGT RAIN  53  52  96 W8        29.64R FOG
LOGAN          CLOUDY    57  57 100 W14G21    29.65R FOG
BLUEFIELD      LGT RAIN  51  50  96 W15G22    29.67R FOG
LEWISBURG      DRIZZLE   53  51  95 SW6       29.61R
$$

WVZ047-260100-
Northern Mountains of West Virginia

CITY           SKY/WX    TMP DP  RH WIND       PRES   REMARKS
ELKINS         CLOUDY    58  49  72 CALM      29.58R
$$

WVZ052-260100-
Eastern Panhandle of West Virginia

CITY           SKY/WX    TMP DP  RH WIND       PRES   REMARKS
MARTINSBURG    CLOUDY    61  59  93 SW3       29.48S
PETERSBURG     MOCLDY    64  51  64 CALM      29.55R
$$




USA.gov is the U.S. government's official web portal to all federal, state and local government web resources and services.